This demonstration page uses our WeatherBlox Daily Observations layout. Learn more.

Left ArrowRight Arrow

44.8408, -93.29828

Hourly Observations for April 27, 2019

Temp ( °F °C ) Dew Point ( °F °C ) Humidity (%) Winds ( mph kmh ) Pressure ( in mb ) Visibility ( mi km ) Precip ( " mm )
12:53 am 00:53 Cloudy 48 8.9 23 -5 37 37 NE 12 19 29.96 1015 10 16 0.00 0.00
1:53 am 01:53 Cloudy 47 8.3 23 -5 39 39 NE 7 11 29.96 1014 10 16 0.00 0.00
2:53 am 02:53 Cloudy 46 7.8 22 -5.6 38 38 ENE 9 15 29.96 1015 10 16 0.00 0.00
3:53 am 03:53 Cloudy 46 7.8 21 -6.1 37 37 ENE 12 19 29.95 1014 10 16 0.00 0.00
4:53 am 04:53 Cloudy 45 7.2 20 -6.7 37 37 E 12 19 29.94 1014 10 16 0.00 0.00
5:53 am 05:53 Cloudy 45 7.2 19 -7.2 35 35 E 13 20 29.92 1013 10 16 0.00 0.00
6:53 am 06:53 Cloudy 44 6.7 19 -7.2 37 37 E 14 22 29.93 1014 10 16 0.00 0.00
7:53 am 07:53 Cloudy 44 6.7 19 -7.2 37 37 E 12 19 29.97 1015 10 16 0.00 0.00
8:53 am 08:53 Cloudy 44 6.7 20 -6.7 38 38 ENE 13 20 29.98 1015 10 16 0.00 0.00
9:53 am 09:53 Cloudy 40 4.4 30 -1.1 68 68 SE 15 24 29.99 1016 8 13 0.00 0.03
10:04 am 10:04 Cloudy 40 4.4 29 -1.7 65 65 SE 9 15 30.01 1016 10 16 0.00 0.00
10:53 am 10:53 Cloudy 40 4.4 30 -1.1 68 68 SSE 12 19 30.00 1016 10 16 0.00 0.00
11:53 am 11:53 Cloudy 43 6.1 24 -4.4 47 47 SE 10 17 30.01 1016 10 16 0.00 0.00
12:53 pm 12:53 Cloudy 44 6.7 23 -5 43 43 Calm 30.00 1016 10 16 0.00 0.00
1:53 pm 13:53 Cloudy 46 7.8 20 -6.7 35 35 ENE 12 19 29.98 1015 10 16 0.00 0.00
2:53 pm 14:53 Cloudy 47 8.3 18 -7.8 31 31 NNE 8 13 29.98 1015 10 16 0.00 0.00
3:53 pm 15:53 Cloudy 49 9.4 18 -7.8 29 29 NNE 8 13 29.98 1015 10 16 0.00 0.00
4:53 pm 16:53 Cloudy 50 10 16 -8.9 26 26 ENE 10 17 29.98 1015 10 16 0.00 0.00
5:53 pm 17:53 Mostly Cloudy 50 10 16 -8.9 26 26 NNE 7 11 29.98 1015 10 16 0.00 0.00
6:53 pm 18:53 Mostly Cloudy 49 9.4 17 -8.3 28 28 NNW 6 9 30.00 1016 10 16 0.00 0.00
7:53 pm 19:53 Partly Cloudy 48 8.9 17 -8.3 29 29 NNE 7 11 30.00 1016 10 16 0.00 0.00
8:53 pm 20:53 Partly Cloudy 48 8.9 16 -8.9 28 28 Calm 30.01 1016 10 16 0.00 0.00
9:53 pm 21:53 Mostly Clear 47 8.3 19 -7.2 33 33 SSW 5 7 30.04 1017 10 16 0.00 0.00
10:53 pm 22:53 Clear 45 7.2 19 -7.2 35 35 SW 5 7 30.05 1018 10 16 0.00 0.00
11:53 pm 23:53 Clear 43 6.1 22 -5.6 43 43 SW 7 11 30.06 1018 10 16 0.00 0.00

Powered by AerisWeather